This is the latest recevied weather packets stored in our database for station/object KB2SKP. If no packets are shown the sender has not sent any weather packets the latest 1 day(s).
| Time | Temp. | Humidity | Pressure | Rain* | Wind** | Luminosity | Snow |
|---|---|---|---|---|---|---|---|
| 1778022449 | 26.11° C | 39% | 1007 hPa | 0 mm | 0 m/s | 21 W/m² | - |
| 1778022146 | 26.11° C | 38% | 1007 hPa | 0 mm | 0.45 m/s, 288° | 24 W/m² | - |
| 1778021842 | 26.11° C | 38% | 1007.1 hPa | 0 mm | 0 m/s | 29 W/m² | - |
| 1778021540 | 26.11° C | 38% | 1007.3 hPa | 0 mm | 0.45 m/s, 106° | 28 W/m² | - |
| 1778021235 | 26.11° C | 38% | 1006.8 hPa | 0 mm | 0.45 m/s, 242° | 29 W/m² | - |
| 1778020933 | 26.11° C | 37% | 1007 hPa | 0 mm | 0 m/s | 29 W/m² | - |
| 1778020630 | 26.67° C | 37% | 1007 hPa | 0 mm | 0.89 m/s, 314° | 29 W/m² | - |
| 1778020326 | 26.67° C | 37% | 1006.9 hPa | 0 mm | 0.45 m/s, 193° | 30 W/m² | - |
| 1778020022 | 26.67° C | 37% | 1007 hPa | 0 mm | 0.89 m/s, 96° | 36 W/m² | - |
| 1778019718 | 26.67° C | 36% | 1007 hPa | 0 mm | 0 m/s | 41 W/m² | - |
| 1778019416 | 27.22° C | 35% | 1007.1 hPa | 0 mm | 1.34 m/s, 41° | 49 W/m² | - |
| 1778019112 | 26.67° C | 36% | 1007 hPa | 0 mm | 0.89 m/s, 73° | 55 W/m² | - |
| 1778018809 | 26.67° C | 35% | 1006.8 hPa | 0 mm | 0 m/s | 54 W/m² | - |
| 1778018507 | 27.22° C | 35% | 1007 hPa | 0 mm | 1.34 m/s, 132° | 57 W/m² | - |
| 1778018204 | 27.22° C | 34% | 1007 hPa | 0 mm | 0.45 m/s, 319° | 63 W/m² | - |
| 1778017902 | 27.22° C | 35% | 1006.9 hPa | 0 mm | 0 m/s | 50 W/m² | - |
| 1778017600 | 27.22° C | 34% | 1006.7 hPa | 0 mm | 0 m/s | 50 W/m² | - |
| 1778017297 | 27.22° C | 34% | 1006.9 hPa | 0 mm | 0.89 m/s, 183° | 59 W/m² | - |
| 1778016995 | 27.78° C | 34% | 1007 hPa | 0 mm | 0.89 m/s, 57° | 62 W/m² | - |
| 1778016691 | 27.78° C | 33% | 1006.9 hPa | 0 mm | 0.89 m/s, 195° | 58 W/m² | - |
| 1778016387 | 27.78° C | 34% | 1006.8 hPa | 0 mm | 1.34 m/s, 57° | 74 W/m² | - |
| 1778016085 | 27.78° C | 33% | 1006.7 hPa | 0 mm | 0 m/s | 84 W/m² | - |
| 1778015782 | 27.78° C | 33% | 1007 hPa | 0 mm | 0.89 m/s, 185° | 75 W/m² | - |
| 1778015479 | 27.78° C | 34% | 1007 hPa | 0 mm | 1.34 m/s, 59° | 65 W/m² | - |
| 1778015175 | 27.78° C | 33% | 1006.6 hPa | 0 mm | 0.89 m/s, 78° | 71 W/m² | - |
* Rain latest hour (hover to see other rain measurements)
** Current wind speed in m/s (hover to see current wind gust speed)